Regional Weather Roundup
Issued by NWS

Home | Current Version | Previous Version | Text Only | Print | Product List | Glossary Off
Versions: 1 2 3 4 5 6 7 8 9 10 11 12 13 14 15 16 17 18 19 20 21 22 23 24 25 26 27 28 29 30 31 32 33 34 35 36 37 38 39 40 41 42 43 44 45 46 47 48 49 50

000
ASUS45 KBOU 271707
RWRCO

WEATHER ROUNDUP FOR COLORADO
NATIONAL WEATHER SERVICE DENVER/BOULDER CO
1100 AM MDT THU APR 27 2017

NOTE: "FAIR" INDICATES FEW OR NO CLOUDS BELOW 12000 FEET WITH NO
SIGNIFICANT WEATHER AND/OR OBSTRUCTIONS TO VISIBILITY.

COZ001>005-013-030-031-271800-
...NORTHWEST COLORADO...

CITY           SKY/WX    TMP DP  RH WIND       PRES   REMARKS
CRAIG          CLOUDY    40  26  57 NW10      29.67S
HAYDEN         PTSUNNY   37  21  52 NW18G29   29.67R
MEEKER         LGT SNOW  35  32  88 VRB3      29.69R FOG
MOUNT WERNER   NOT AVBL
STEAMBOAT SPGS CLOUDY    33  30  90 S6        29.67S WCI  28
WALDEN           N/A     32  28  86 W3        29.63R
$$

COZ006>008-011-271800-
...WEST CENTRAL VALLEYS...

CITY           SKY/WX    TMP DP  RH WIND       PRES   REMARKS
GRAND JUNCTION CLOUDY    51  35  54 NW12      29.66F
MONTROSE       FAIR      51  36  56 VRB5      29.70F
EAGLE          PTSUNNY   37  34  87 NW13      29.67R
RIFLE          PTSUNNY   50  32  50 W20G26    29.65S
DELTA          FAIR      52  39  60 SE5       29.69S
NUCLA          CLOUDY    52  25  35 W15G24    29.74S
$$

COZ017>023-064>068-271800-
...SOUTHWEST COLORADO...

CITY           SKY/WX    TMP DP  RH WIND       PRES   REMARKS
DURANGO        FAIR      45  37  73 W10       29.70F
CORTEZ         LGT RAIN  45  38  76 NW14      29.75R
PAGOSA SPRINGS LGT SNOW  37  37 100 SE5       29.73F VSB 1
TELLURIDE      CLOUDY    35  25  67 W8        29.78S WCI  28
WOLF CREEK PAS SNOW      23  23 100 SW12      29.81S VSB 1/4 WCI  12
$$

COZ009-010-012-014-032>034-037-058>063-271800-
...CENTRAL COLORADO...

CITY           SKY/WX    TMP DP  RH WIND       PRES   REMARKS
ASPEN          FAIR      42  32  67 N9        29.64F
BUENA VISTA    FAIR      43  31  63 E5        29.61S
COPPER MTN     LGT SNOW  28  19  69 SW7G18    29.68R WCI  21
BERTHOUD PASS  CLOUDY    18   7  62 MISG      29.64S
COTTONWOOD PAS FAIR      39  23  52 NW5       29.63F
GUNNISON       FAIR      41  23  48 W18G28    29.68R
KREMMLING      CLOUDY    39  30  70 NW12G21   29.66R
LEADVILLE      FAIR      32  16  51 W16G25    29.64S WCI  21
MONARCH PASS   CLOUDY    23  23 100 W31G43    29.80S WCI   5
SALIDA         FAIR      50  23  34 W25G38    29.68R
SUNLIGHT       CLOUDY    27  23  86 MISG      29.73R
WILKERSON PASS PTSUNNY   30  27  86 W7G21     29.67F WCI  23
$$

COZ069>075-271800-
...SAN LUIS VALLEY/SANGRE DE CRISTO MOUNTAINS...

CITY           SKY/WX    TMP DP  RH WIND       PRES   REMARKS
ALAMOSA        PTSUNNY   48  31  51 VRB7      29.64F
LA VETA PASS   PTSUNNY   37  30  75 S17G28    29.78S
SAGUACHE       PTSUNNY   46  23  39 NW30G40   29.63F
$$

COZ035-036-038>040-271800-
...NORTHERN COLORADO FRONT RANGE...

CITY           SKY/WX    TMP DP  RH WIND       PRES   REMARKS
DENVER INTL AP PTSUNNY   46  36  68 NW12      29.53F
DMNS CITY PARK   N/A     49  36  60 NE6G15    29.53S
AURORA         CLOUDY    47  35  64 N6        29.54F
FRONT RANGE AP CLOUDY    52  37  58 N9        29.54F
ERIE MUNI ARPT PTSUNNY   49  38  65 N12       29.53F
BOULDER MUN AP FAIR      46  37  71 N10       29.53F THUNDER
CENTENNIAL     PTSUNNY   48  35  60 VRB3      29.52F
BROOMFIELD     CLOUDY    48  37  66 N12       29.54F
FORT COLLINS   FAIR      47  37  68 NW5       29.55S
LONGMONT       LGT RAIN  48  39  70 N6        29.56
$$

COZ041-046-047-076>085-087-088-271800-
...PIKES PEAK/PALMER DIVIDE AND SOUTHERN FOOTHILLS...

CITY           SKY/WX    TMP DP  RH WIND       PRES   REMARKS
COLO. SPRINGS  PTSUNNY   52  34  50 NE3       29.55R
A. F. ACADEMY  FAIR      52  28  40 VRB3      29.52F
SCHRIEVER AFB  FAIR      49  35  57 SE3       29.55S
ELLICOTT       NOT AVBL
FALCON         FAIR      49  33  54 CALM      29.57R
FORT CARSON    FAIR      49  34  57 CALM      29.53F
LIMON          FAIR      54  33  45 S7        29.52F
MONUMENT HILL  FAIR      46  32  57 CALM      29.57S
TRINIDAD       FAIR      58  30  34 VRB5      29.54F
$$

COZ042>045-048>051-090-091-271800-
...NORTHEAST COLORADO...

CITY           SKY/WX    TMP DP  RH WIND       PRES   REMARKS
GREELEY ARPT   FAIR      49  38  65 NE10      29.54F
AKRON          FAIR      53  40  61 E10       29.53F
BURLINGTON     NOT AVBL
WRAY           NOT AVBL
STERLING       CLOUDY    48  43  81 NE14      29.54S
HOLYOKE        FAIR      54  37  54 E12G17    29.58S
FORT MORGAN    FAIR      53  39  58 E8        29.53S
$$

COZ086-089-092>099-271800-
...SOUTHEAST COLORADO...

CITY           SKY/WX    TMP DP  RH WIND       PRES   REMARKS
PUEBLO         FAIR      54  40  59 CALM      29.52F
LA JUNTA       FAIR      58  42  55 W9        29.50F
LAMAR          FAIR      61  37  41 CALM      29.48F
SPRINGFIELD      N/A     59  40  49 S14       29.50F
$$



USA.gov is the U.S. government's official web portal to all federal, state and local government web resources and services.